St. Paul Lake Elmo, MN

4:25 PM CST on November 11, 2019 (GMT -0600)
St. Paul Lake Elmo

Weather History for K21D - September, 2019

Change the Weather History Date:

Monday, September 2, 2019

  Actual Average (WUND) Record (WUND)
Temperature  
Mean Temperature 68 °F -  
Max Temperature 75 °F - - (-1)
Min Temperature 60 °F - - (-1)
Cooling Degree Days 2    
Growing Degree Days 18 (Base 50)    
Moisture  
Dew Point 62 °F    
Average Humidity 87    
Maximum Humidity 100    
Minimum Humidity 61    
Precipitation  
Precipitation 1.06 in - - ()
Sea Level Pressure  
Sea Level Pressure 30.05 in    
Wind  
Wind Speed 2 mph (East)    
Max Wind Speed 16 mph    
Max Gust Speed 28 mph    
Visibility 10 miles    
Events Rain , Thunderstorm    
Averages and records for this station are not official NWS values.
T = Trace of Precipitation, MM = Missing Value Source: NWS Daily Summary

Daily Weather History Graph

Daily Weather History Graph

Search for Another Location

Airport or City:

Astronomy

Sep. 02, 2019 Rise Set
Actual Time 6:34 AM CDT 7:47 PM CDT
Civil Twilight 6:04 AM CDT 8:17 PM CDT
Nautical Twilight 5:27 AM CDT 8:53 PM CDT
Astronomical Twilight 4:49 AM CDT 9:31 PM CDT
Moon 10:26 AM CDT (9/2) 9:58 PM CDT (9/2)
Length of Visible Light 14h 13m
Length of Day
13h 12m
Waxing Crescent, 15% of the Moon is Illuminated
Sep 2
Waxing Crescent
Sep 5
First Quarter
Sep 13
Full
Sep 21
Last Quarter
Sep 28
New

Hourly Weather History & Observations

Time (CDT) Temp. Dew Point Humidity Pressure Visibility Wind Dir Wind Speed Gust Speed Precip Events Conditions
12:15 AM 62.6 °F 62.6 °F 100% 30.08 in 10.0 mi Calm Calm - N/A   Unknown
12:20 AM 62.6 °F 62.6 °F 100% 30.08 in 10.0 mi Calm Calm - N/A   Unknown
12:37 AM 64.4 °F 62.6 °F 94% 30.08 in 10.0 mi Calm Calm - N/A   Unknown
12:56 AM 64.4 °F 62.6 °F 94% 30.08 in 10.0 mi Calm Calm - N/A   Unknown
1:15 AM 62.6 °F 62.6 °F 100% 30.09 in 10.0 mi Calm Calm - N/A   Unknown
1:16 AM 62.6 °F 62.6 °F 100% 30.09 in 10.0 mi Calm Calm - N/A   Unknown
1:35 AM 62.6 °F 62.6 °F 100% 30.08 in 10.0 mi Calm Calm - N/A   Unknown
1:40 AM 62.6 °F 62.6 °F 100% 30.08 in 10.0 mi Calm Calm - N/A   Unknown
1:57 AM 62.6 °F 62.6 °F 100% 30.09 in 10.0 mi Calm Calm - N/A   Unknown
2:15 AM 62.6 °F 62.6 °F 100% 30.09 in 10.0 mi Calm Calm - N/A   Unknown
2:36 AM 62.6 °F 62.6 °F 100% 30.09 in 10.0 mi Calm Calm - N/A   Unknown
2:55 AM 62.6 °F 62.6 °F 100% 30.09 in 10.0 mi Calm Calm - N/A   Unknown
2:59 AM 62.6 °F 60.8 °F 94% 30.09 in 10.0 mi Calm Calm - N/A   Unknown
3:17 AM 62.6 °F 62.6 °F 100% 30.09 in 7.0 mi Calm Calm - N/A   Unknown
3:35 AM 62.6 °F 62.6 °F 100% 30.09 in 10.0 mi Calm Calm - N/A   Unknown
3:55 AM 62.6 °F 62.6 °F 100% 30.08 in 10.0 mi Calm Calm - N/A   Unknown
3:56 AM 62.6 °F 62.6 °F 100% 30.08 in 10.0 mi Calm Calm - N/A   Unknown
4:15 AM 62.6 °F 62.6 °F 100% 30.09 in 10.0 mi Calm Calm - N/A   Unknown
4:19 AM 62.6 °F 62.6 °F 100% 30.09 in 10.0 mi Calm Calm - N/A   Unknown
4:38 AM 62.6 °F 62.6 °F 100% 30.09 in 10.0 mi Calm Calm - N/A   Unknown
4:55 AM 62.6 °F 62.6 °F 100% 30.09 in 10.0 mi Calm Calm - N/A   Unknown
5:15 AM 62.6 °F 62.6 °F 100% 30.10 in 10.0 mi Calm Calm - N/A   Unknown
5:16 AM 62.6 °F 62.6 °F 100% 30.10 in 10.0 mi Calm Calm - N/A   Unknown
5:35 AM 62.6 °F 62.6 °F 100% 30.10 in 10.0 mi Calm Calm - N/A   Unknown
5:36 AM 62.6 °F 62.6 °F 100% 30.10 in 10.0 mi Calm Calm - N/A   Unknown
5:59 AM 60.8 °F 60.8 °F 100% 30.11 in 7.0 mi Calm Calm - N/A   Unknown
6:16 AM 60.8 °F 60.8 °F 100% 30.11 in 10.0 mi North 5.8 mph - N/A   Unknown
6:35 AM 60.8 °F 60.8 °F 100% 30.12 in 10.0 mi Calm Calm - N/A   Unknown
6:36 AM 60.8 °F 60.8 °F 100% 30.12 in 10.0 mi Calm Calm - N/A   Unknown
6:55 AM 60.8 °F 60.8 °F 100% 30.12 in 10.0 mi North 3.5 mph - N/A   Unknown
6:56 AM 60.8 °F 60.8 °F 100% 30.12 in 10.0 mi North 3.5 mph - N/A   Unknown
7:15 AM 60.8 °F 60.8 °F 100% 30.12 in 10.0 mi NNE 3.5 mph - N/A   Unknown
7:19 AM 60.8 °F 60.8 °F 100% 30.12 in 10.0 mi NNE 3.5 mph - N/A   Unknown
7:38 AM 60.8 °F 60.8 °F 100% 30.13 in 10.0 mi NNE 4.6 mph - N/A   Unknown
7:55 AM 60.8 °F 60.8 °F 100% 30.13 in 10.0 mi Calm Calm - N/A   Unknown
8:15 AM 60.8 °F 60.8 °F 100% 30.13 in 10.0 mi NNE 4.6 mph - N/A   Unknown
8:16 AM 60.8 °F 60.8 °F 100% 30.13 in 10.0 mi NE 5.8 mph - N/A   Unknown
8:35 AM 60.8 °F 60.8 °F 100% 30.14 in 10.0 mi Calm Calm - N/A   Unknown
8:36 AM 60.8 °F 60.8 °F 100% 30.14 in 10.0 mi Calm Calm - N/A   Unknown
8:59 AM 60.8 °F 60.8 °F 100% 30.14 in 10.0 mi ENE 4.6 mph - N/A   Unknown
9:16 AM 60.8 °F 60.8 °F 100% 30.14 in 10.0 mi ENE 3.5 mph - N/A   Unknown
9:35 AM 60.8 °F 60.8 °F 100% 30.15 in 10.0 mi Calm Calm - N/A   Unknown
9:55 AM 60.8 °F 59.0 °F 94% 30.14 in 10.0 mi Calm Calm - N/A   Unknown
10:15 AM 62.6 °F 60.8 °F 94% 30.15 in 10.0 mi ENE 5.8 mph - N/A   Unknown
10:20 AM 62.6 °F 59.0 °F 88% 30.15 in 10.0 mi ENE 3.5 mph - N/A   Unknown
10:37 AM 62.6 °F 60.8 °F 94% 30.15 in 10.0 mi ENE 5.8 mph - N/A   Unknown
10:56 AM 64.4 °F 60.8 °F 88% 30.14 in 10.0 mi NE 6.9 mph - N/A   Unknown
11:15 AM 64.4 °F 60.8 °F 88% 30.14 in 10.0 mi ENE 5.8 mph - N/A   Unknown
11:16 AM 64.4 °F 60.8 °F 88% 30.14 in 10.0 mi NE 5.8 mph - N/A   Unknown
11:35 AM 64.4 °F 60.8 °F 88% 30.13 in 10.0 mi ENE 5.8 mph - N/A   Unknown
11:57 AM 64.4 °F 59.0 °F 83% 30.13 in 10.0 mi ENE 4.6 mph - N/A   Unknown
12:16 PM 68.0 °F 60.8 °F 78% 30.13 in 10.0 mi East 6.9 mph - N/A   Unknown
12:35 PM 68.0 °F 60.8 °F 78% 30.12 in 10.0 mi ESE 4.6 mph - N/A   Unknown
12:36 PM 68.0 °F 60.8 °F 78% 30.12 in 10.0 mi ESE 6.9 mph - N/A   Unknown
12:55 PM 69.8 °F 60.8 °F 73% 30.12 in 10.0 mi East 5.8 mph - N/A   Unknown
12:56 PM 69.8 °F 60.8 °F 73% 30.12 in 10.0 mi East 4.6 mph - N/A   Unknown
1:18 PM 69.8 °F 60.8 °F 73% 30.11 in 10.0 mi NE 3.5 mph - N/A   Unknown
1:36 PM 69.8 °F 60.8 °F 73% 30.11 in 10.0 mi Calm Calm - N/A   Unknown
1:55 PM 71.6 °F 60.8 °F 69% 30.09 in 10.0 mi NE 4.6 mph - N/A   Unknown
1:56 PM 71.6 °F 60.8 °F 69% 30.09 in 10.0 mi ENE 4.6 mph - N/A   Unknown
2:15 PM 71.6 °F 60.8 °F 69% 30.08 in 10.0 mi Calm Calm - N/A   Unknown
2:16 PM 71.6 °F 60.8 °F 69% 30.08 in 10.0 mi East 4.6 mph - N/A   Unknown
2:38 PM 73.4 °F 60.8 °F 65% 30.07 in 10.0 mi East 4.6 mph - N/A   Unknown
2:56 PM 73.4 °F 60.8 °F 65% 30.06 in 10.0 mi East 6.9 mph - N/A   Unknown
3:15 PM 73.4 °F 60.8 °F 65% 30.06 in 10.0 mi East 5.8 mph - N/A   Unknown
3:16 PM 73.4 °F 60.8 °F 65% 30.06 in 10.0 mi East 4.6 mph - N/A   Unknown
3:35 PM 75.2 °F 60.8 °F 61% 30.05 in 10.0 mi East 4.6 mph - N/A   Unknown
3:36 PM 75.2 °F 60.8 °F 61% 30.04 in 10.0 mi East 5.8 mph - N/A   Unknown
3:58 PM 73.4 °F 60.8 °F 65% 30.04 in 10.0 mi East 3.5 mph - N/A   Unknown
4:16 PM 73.4 °F 60.8 °F 65% 30.04 in 10.0 mi East 3.5 mph - N/A   Unknown
4:35 PM 73.4 °F 60.8 °F 65% 30.04 in 10.0 mi Calm Calm - N/A   Unknown
4:55 PM 73.4 °F 62.6 °F 69% 30.03 in 10.0 mi ESE 3.5 mph - N/A   Unknown
4:56 PM 73.4 °F 62.6 °F 69% 30.02 in 10.0 mi SE 3.5 mph - N/A   Unknown
5:15 PM 73.4 °F 62.6 °F 69% 30.02 in 10.0 mi Calm Calm - N/A   Unknown
5:19 PM 73.4 °F 62.6 °F 69% 30.02 in 10.0 mi ESE 4.6 mph - N/A   Unknown
5:37 PM 73.4 °F 62.6 °F 69% 30.01 in 10.0 mi East 4.6 mph - N/A   Unknown
5:56 PM 71.6 °F 62.6 °F 73% 30.00 in 10.0 mi ESE 4.6 mph - N/A   Unknown
6:15 PM 71.6 °F 62.6 °F 73% 29.98 in 10.0 mi East 5.8 mph - N/A   Unknown
6:35 PM 71.6 °F 62.6 °F 73% 29.97 in 10.0 mi East 5.8 mph - N/A   Unknown
6:58 PM 71.6 °F 62.6 °F 73% 29.96 in 10.0 mi ESE 4.6 mph - N/A   Unknown
7:17 PM 69.8 °F 62.6 °F 78% 29.94 in 10.0 mi East 6.9 mph - N/A   Unknown
7:36 PM 69.8 °F 62.6 °F 78% 29.93 in 10.0 mi East 5.8 mph - N/A   Unknown
7:55 PM 69.8 °F 62.6 °F 78% 29.92 in 10.0 mi ESE 5.8 mph - N/A   Unknown
8:15 PM 69.8 °F 62.6 °F 78% 29.92 in 10.0 mi ESE 5.8 mph - N/A   Unknown
8:19 PM 69.8 °F 62.6 °F 78% 29.91 in 10.0 mi ESE 6.9 mph - N/A   Unknown
8:38 PM 69.8 °F 62.6 °F 78% 29.90 in 10.0 mi ESE 6.9 mph - N/A   Unknown
8:55 PM 69.8 °F 62.6 °F 78% 29.87 in 10.0 mi ESE 8.1 mph - N/A   Unknown
9:15 PM 69.8 °F 62.6 °F 78% 29.86 in 10.0 mi ESE 9.2 mph - N/A   Unknown
9:16 PM 69.8 °F 62.6 °F 78% 29.86 in 10.0 mi ESE 10.4 mph - N/A   Unknown
9:35 PM 69.8 °F 64.4 °F 83% 29.85 in 10.0 mi SE 11.5 mph 17.3 mph N/A   Unknown
9:39 PM 71.6 °F 64.4 °F 78% 29.84 in 10.0 mi SE 11.5 mph 17.3 mph N/A   Unknown
9:58 PM 71.6 °F 64.4 °F 78% 29.84 in 10.0 mi SE 10.4 mph - N/A Thunderstorm Unknown
10:15 PM 71.6 °F 64.4 °F 78% 29.85 in 10.0 mi SSE 10.4 mph 18.4 mph N/A Thunderstorm Unknown
10:35 PM 71.6 °F 66.2 °F 83% 29.87 in 10.0 mi SW 3.5 mph - N/A Rain , Thunderstorm Light Thunderstorms and Rain
10:36 PM 71.6 °F 66.2 °F 83% 29.89 in 10.0 mi WSW 4.6 mph - N/A Rain , Thunderstorm Light Thunderstorms and Rain
10:55 PM 62.6 °F 62.6 °F 100% 29.95 in 0.5 mi NW 16.1 mph 27.6 mph 0.88 in Rain , Thunderstorm Heavy Thunderstorms and Rain
10:59 PM 62.6 °F 62.6 °F 100% 29.93 in 1.2 mi WSW 9.2 mph 23.0 mph 0.95 in Rain , Thunderstorm Heavy Thunderstorms and Rain
11:17 PM 64.4 °F 62.6 °F 94% 29.84 in 10.0 mi Calm Calm - 0.11 in Rain , Thunderstorm Light Thunderstorms and Rain
11:35 PM 64.4 °F 62.6 °F 94% 29.87 in 10.0 mi WSW 5.8 mph - 0.11 in Rain , Thunderstorm Light Thunderstorms and Rain
11:55 PM 64.4 °F 62.6 °F 94% 29.87 in 10.0 mi Calm Calm - 0.11 in   Unknown
11:56 PM 64.4 °F 62.6 °F 94% 29.87 in 10.0 mi Calm Calm - 0.11 in   Unknown